Location: Pandora
(40.9481°N, 83.9611°W)
Time: 03:29:48
(UTC-04:00)

ISS - Pass Details

Date: 06 October 2021
Orbit: 417 x 423 km, 51.6° (Epoch: 27 October)

Event Time Altitude Azimuth Distance (km) Brightness Sun altitude
Rises 19:47:10 0° 304° (NW) 2,363 1.1 -8.0°
Reaches altitude 10° 19:49:17 10° 302° (WNW) 1,497 0.1 -8.4°
Maximum altitude 19:52:37 68° 219° (SW) 453 -3.5 -9.0°
Drops below altitude 10° 19:55:57 10° 136° (SE) 1,492 -1.4 -9.7°
Enters shadow 19:56:31 - 135° (SE) 1,727 -1.1 -9.8°
